Location: Dine Sky Observatory
(36.3696°N, 109.6234°W)
Time: 21:23:03
(UTC-07:00)

Tiangong 1 - Visible Passes

Search period start: 21 January 2018 00:00
Search period end: 31 January 2018 00:00
Orbit: 261 x 287 km, 42.8° (Epoch: 21 January)

Date Brightness Start Highest point End Pass type
(mag) Time Alt. Az. Time Alt. Az. Time Alt. Az.
21 Jan 1.8 19:00:03 10° NW 19:01:41 32° NNW 19:01:41 32° NNW visible
22 Jan 0.8 18:59:17 10° WNW 19:01:23 60° WNW 19:01:23 60° WNW visible
23 Jan 1.3 18:58:28 10° WNW 19:00:50 44° SSW 19:01:07 41° S visible
24 Jan 2.8 18:57:42 10° W 18:59:42 22° SW 19:00:56 15° S visible
25 Jan 3.7 18:57:21 10° WSW 18:58:21 12° SW 18:59:20 10° SSW visible
